Marion Regional, IL

3:49 AM CDT on August 23, 2017 (GMT -0500)
Williamson County Regional

Weather History for KMWA - June, 2013

Change the Weather History Date:

Thursday, June 13, 2013

  Actual Average Record
Temperature  
Mean Temperature 76 °F -  
Max Temperature 86 °F 83 °F 95 °F (2016)
Min Temperature 66 °F 61 °F 32 °F (1998)
Cooling Degree Days 11    
Growing Degree Days 26 (Base 50)    
Moisture  
Dew Point 65 °F    
Average Humidity 65    
Maximum Humidity 88    
Minimum Humidity 42    
Precipitation  
Precipitation 0.00 in - - ()
Sea Level Pressure  
Sea Level Pressure 29.90 in    
Wind  
Wind Speed 9 mph (WNW)    
Max Wind Speed 17 mph    
Max Gust Speed 22 mph    
Visibility 12 miles    
Events      
Averages and records for this station are not official NWS values.
T = Trace of Precipitation, MM = Missing Value Source: NWS Daily Summary

Daily Weather History Graph

Daily Weather History Graph

Search for Another Location

Airport or City:

Trip Planner

Search our weather history database for the weather conditions in past years. The results will help you decide how hot, cold, wet, or windy it might be!

Date:

Astronomy

Jun. 13, 2013 Rise Set
Actual Time 5:33 AM CDT 8:18 PM CDT
Civil Twilight 5:02 AM CDT 8:50 PM CDT
Nautical Twilight 4:23 AM CDT 9:29 PM CDT
Astronomical Twilight 3:39 AM CDT 10:13 PM CDT
Moon 10:06 AM CDT (6/13) 11:30 PM CDT (6/13)
Length of Visible Light 15h 47m
Length of Day
14h 45m
Waxing Crescent, 22% of the Moon is Illuminated
Jun 13
Waxing Crescent
Jun 16
First Quarter
Jun 23
Full
Jun 29
Last Quarter
Jul 8
New

Hourly Weather History & Observations

Time (CDT) Temp. Heat Index Dew Point Humidity Pressure Visibility Wind Dir Wind Speed Gust Speed Precip Events Conditions
12:35 AM 86.0 °F 89.4 °F 68.0 °F 55% 29.81 in 10.0 mi SW 11.5 mph 18.4 mph N/A   Unknown
12:55 AM 86.0 °F 90.4 °F 69.8 °F 58% 29.81 in 10.0 mi SW 9.2 mph - N/A   Unknown
1:15 AM 86.0 °F 90.4 °F 69.8 °F 58% 29.81 in 10.0 mi SW 10.4 mph 20.7 mph N/A   Unknown
1:35 AM 86.0 °F 90.4 °F 69.8 °F 58% 29.81 in 10.0 mi SW 10.4 mph - N/A   Unknown
1:55 AM 84.2 °F 88.4 °F 69.8 °F 62% 29.80 in 10.0 mi SW 11.5 mph 16.1 mph N/A   Unknown
2:15 AM 84.2 °F 88.4 °F 69.8 °F 62% 29.81 in 10.0 mi WSW 10.4 mph 19.6 mph N/A   Unknown
2:35 AM 84.2 °F 88.4 °F 69.8 °F 62% 29.80 in 10.0 mi SW 9.2 mph 21.9 mph N/A   Unknown
2:55 AM 84.2 °F 88.4 °F 69.8 °F 62% 29.80 in 10.0 mi SW 9.2 mph - N/A   Unknown
3:15 AM 84.2 °F 88.4 °F 69.8 °F 62% 29.80 in 10.0 mi SW 11.5 mph 17.3 mph N/A   Unknown
3:35 AM 84.2 °F 88.4 °F 69.8 °F 62% 29.80 in 10.0 mi SW 8.1 mph 17.3 mph N/A   Unknown
3:55 AM 82.4 °F 86.3 °F 69.8 °F 66% 29.80 in 10.0 mi WSW 8.1 mph - N/A   Unknown
4:15 AM 82.4 °F 86.3 °F 69.8 °F 66% 29.81 in 10.0 mi WSW 8.1 mph - N/A   Unknown
4:35 AM 82.4 °F 86.3 °F 69.8 °F 66% 29.81 in 10.0 mi WSW 6.9 mph - N/A   Unknown
4:55 AM 82.4 °F 86.3 °F 69.8 °F 66% 29.80 in 10.0 mi SW 9.2 mph - N/A   Unknown
5:15 AM 82.4 °F 86.3 °F 69.8 °F 66% 29.81 in 10.0 mi WSW 8.1 mph - N/A   Unknown
5:35 AM 80.6 °F 83.9 °F 69.8 °F 70% 29.81 in 10.0 mi WSW 8.1 mph - N/A   Unknown
5:55 AM 80.6 °F 83.9 °F 69.8 °F 70% 29.82 in 10.0 mi West 6.9 mph - N/A   Unknown
6:15 AM 80.6 °F 83.9 °F 69.8 °F 70% 29.82 in 10.0 mi West 4.6 mph - N/A   Unknown
6:50 AM 80.6 °F 83.2 °F 68.0 °F 65% 29.84 in 20.0 mi NW 17.3 mph - N/A   Mostly Cloudy
7:50 AM 78.8 °F - 62.6 °F 57% 29.87 in 20.0 mi NW 17.3 mph - N/A   Mostly Cloudy
8:58 AM 75.2 °F - 62.6 °F 65% 29.91 in 20.0 mi NW 13.8 mph - N/A   Overcast
9:55 AM 73.4 °F - 62.6 °F 69% 29.92 in 20.0 mi NW 13.8 mph - N/A   Overcast
10:50 AM 73.4 °F - 64.4 °F 73% 29.94 in 20.0 mi NW 11.5 mph - N/A   Overcast
11:55 AM 77.0 °F - 66.2 °F 69% 29.96 in 20.0 mi NNW 11.5 mph - N/A   Overcast
12:55 PM 77.0 °F - 66.2 °F 69% 29.96 in 20.0 mi NNW 13.8 mph - N/A   Overcast
2:55 PM 80.6 °F 82.3 °F 64.4 °F 58% 29.96 in 20.0 mi NNW 13.8 mph - N/A   Mostly Cloudy
3:55 PM 82.4 °F 82.9 °F 60.8 °F 48% 29.97 in 20.0 mi North 11.5 mph - N/A   Scattered Clouds
4:55 PM 84.2 °F 83.8 °F 59.0 °F 42% 29.95 in 20.0 mi North 11.5 mph - N/A   Scattered Clouds
5:55 PM 82.4 °F 82.5 °F 59.0 °F 45% 29.94 in 20.0 mi North 9.2 mph - N/A   Scattered Clouds
6:35 PM 82.4 °F 82.0 °F 57.2 °F 42% 29.96 in 10.0 mi North 4.6 mph - N/A   Unknown
6:55 PM 80.6 °F 81.1 °F 59.0 °F 48% 29.97 in 10.0 mi North 3.5 mph - N/A   Unknown
7:15 PM 80.6 °F 81.1 °F 59.0 °F 48% 29.97 in 10.0 mi North 3.5 mph - N/A   Unknown
7:35 PM 78.8 °F - 60.8 °F 54% 29.98 in 10.0 mi North 3.5 mph - N/A   Unknown
7:55 PM 75.2 °F - 62.6 °F 65% 29.98 in 10.0 mi Calm Calm - N/A   Unknown
8:15 PM 75.2 °F - 60.8 °F 61% 29.98 in 10.0 mi Calm Calm - N/A   Unknown
8:35 PM 71.6 °F - 62.6 °F 73% 29.98 in 10.0 mi Calm Calm - N/A   Unknown
8:55 PM 69.8 °F - 62.6 °F 78% 29.98 in 10.0 mi Calm Calm - N/A   Unknown
9:15 PM 69.8 °F - 62.6 °F 78% 29.98 in 10.0 mi Calm Calm - N/A   Unknown
9:35 PM 68.0 °F - 62.6 °F 83% 29.99 in 10.0 mi Calm Calm - N/A   Unknown
9:55 PM 69.8 °F - 62.6 °F 78% 29.99 in 10.0 mi Calm Calm - N/A   Unknown
10:15 PM 68.0 °F - 62.6 °F 83% 29.99 in 10.0 mi Calm Calm - N/A   Unknown
10:35 PM 66.2 °F - 62.6 °F 88% 30.00 in 10.0 mi NNE 5.8 mph - N/A   Unknown
10:55 PM 68.0 °F - 62.6 °F 83% 30.00 in 10.0 mi NNE 4.6 mph - N/A   Unknown
11:15 PM 68.0 °F - 60.8 °F 78% 29.99 in 10.0 mi NNE 3.5 mph - N/A   Unknown
11:35 PM 68.0 °F - 60.8 °F 78% 29.99 in 10.0 mi Calm Calm - N/A   Unknown
11:55 PM 68.0 °F - 60.8 °F 78% 29.99 in 10.0 mi Calm Calm - N/A   Unknown